This is the latest recevied weather packets stored in our database for station/object KC5TIL-3. If no packets are shown the sender has not sent any weather packets the latest 10 day(s).
| Time | Temp. | Humidity | Pressure | Rain* | Wind** | Luminosity | Snow |
|---|---|---|---|---|---|---|---|
| 1777905548 | 20° C | 37% | 1010.8 hPa | 0 mm | 6.71 m/s, 199° | - | - |
| 1777904951 | 19.44° C | 36% | 1010.8 hPa | 0 mm | 5.36 m/s, 212° | - | - |
| 1777904650 | 19.44° C | 38% | 1010.8 hPa | 0 mm | 4.92 m/s, 197° | - | - |
| 1777904351 | 19.44° C | 39% | 1010.8 hPa | 0 mm | 6.71 m/s, 212° | - | - |
| 1777904053 | 19.44° C | 39% | 1010.8 hPa | 0 mm | 5.36 m/s, 190° | - | - |
| 1777903454 | 19.44° C | 41% | 1010.8 hPa | 0 mm | 4.47 m/s, 222° | - | - |
| 1777903156 | 18.89° C | 42% | 1010.8 hPa | 0 mm | 5.81 m/s, 218° | - | - |
| 1777902855 | 18.89° C | 42% | 1010.8 hPa | 0 mm | 5.36 m/s, 174° | - | - |
| 1777902556 | 18.89° C | 42% | 1010.8 hPa | 0 mm | 4.92 m/s, 196° | - | - |
| 1777901957 | 18.33° C | 43% | 1010.8 hPa | 0 mm | 4.92 m/s, 199° | - | - |
| 1777901658 | 18.33° C | 43% | 1010.8 hPa | 0 mm | 4.47 m/s, 209° | - | - |
| 1777901054 | 18.33° C | 43% | 1010.8 hPa | 0 mm | 4.47 m/s, 229° | - | - |
| 1777900756 | 18.33° C | 43% | 1010.8 hPa | 0 mm | 4.47 m/s, 175° | - | - |
| 1777900157 | 18.33° C | 43% | 1010.8 hPa | 0 mm | 4.92 m/s, 194° | - | - |
| 1777899859 | 18.33° C | 44% | 1010.8 hPa | 0 mm | 4.47 m/s, 229° | - | - |
| 1777899561 | 17.78° C | 44% | 1010.8 hPa | 0 mm | 4.47 m/s, 207° | - | - |
| 1777899259 | 17.78° C | 44% | 1010.8 hPa | 0 mm | 4.92 m/s, 151° | - | - |
| 1777898658 | 17.78° C | 46% | 1010.8 hPa | 0 mm | 3.13 m/s, 124° | - | - |
| 1777898357 | 17.78° C | 46% | 1010.8 hPa | 0 mm | 3.58 m/s, 193° | - | - |
| 1777898059 | 17.22° C | 46% | 1010.8 hPa | 0 mm | 3.58 m/s, 237° | - | - |
| 1777897761 | 17.22° C | 47% | 1010.8 hPa | 0 mm | 4.92 m/s, 158° | - | - |
| 1777897460 | 17.22° C | 47% | 1010.8 hPa | 0 mm | 4.47 m/s, 191° | - | - |
| 1777897161 | 17.22° C | 47% | 1009.8 hPa | 0 mm | 3.13 m/s, 200° | - | - |
| 1777896859 | 17.22° C | 47% | 1009.8 hPa | 0 mm | 4.02 m/s, 225° | - | - |
| 1777896557 | 17.22° C | 47% | 1009.8 hPa | 0 mm | 4.92 m/s, 228° | - | - |
* Rain latest hour (hover to see other rain measurements)
** Current wind speed in m/s (hover to see current wind gust speed)